Погода в Макарове

Россия / Республика Башкортостан     53°38′35″N   56°36′50″E
темп.,
°C
ветер,
м/с
пор.,
м/с
влажн.,
%
обл.,
%
осадки,
мм/ч
давл.,
гПа
погр.,
м
24 июля, сб
сб2423:00+16ссв3578100 0.0 1003106
02:00+15с1186100 0.0 100320
05:00+13с11914 0.0 100412
08:00+17ссв13720 0.0 1006258
11:00+23ссз34410 0.0 10061429
14:00+25сз2433100 0.0 10052736
17:00+25с243418 0.0 10061415
20:00+21с225129 0.0 100733
25 июля, вс
вс2523:00+18сз1153100 0.0 100916
02:00+14ссв007326 0.0 101011
05:00+13зсз118623 0.3 101224
08:00+14ссз258942 0.3 1014410
11:00+19с565311 0.3 10151398
14:00+22ссз56345 0.0 10162319
17:00+22ссз56273 0.0 10172377
20:00+19с24431 0.0 101889
26 июля, пн
пн2623:00+12ссв22571 0.0 102018
02:00+10в11680 0.0 102110
05:00+8всв11730 0.0 102210
08:00+14с01549 0.0 1023193
11:00+17ссз454121 0.0 10231322
14:00+21с362963 0.0 10222622
17:00+22ссз462947 0.0 10212612
20:00+18с114996 0.0 102128
27 июля, вт
вт2723:00+14ююв1156100 0.0 102111
02:00+13ю225727 0.0 102122
05:00+11ю226529 0.0 102115
08:00+14ююз2356100 0.0 1020159
11:00+19юз354161 0.0 1019781
14:00+21з464056 0.0 10171414
17:00+23з5634100 0.0 10152089
20:00+19с2349100 0.0 101477
28 июля, ср
ср2823:00+14сз1175100 0.1 101539
02:00+12ююз11935 0.2 101512
05:00+11зсз019781 0.2 101525
08:00+13с348995 0.0 1016461
11:00+18с46540 0.0 10161261
14:00+21с45350 0.0 10151782
17:00+22с45300 0.0 10141830
20:00+18всв23470 0.0 101473